Tracking 29019 objects as of 13-Jun-2024
HD Live streaming from Space Station
objects crossing your sky now

OSCAR 22 (UoSAT 5)

Track OSCAR 22 (UoSAT 5) now!
10-day predictions
OSCAR 22 (UoSAT 5) is classified as:


NORAD ID: 21575
Int'l Code: 1991-050B
Perigee: 755.7 km
Apogee: 764.9 km
Inclination: 98.4 °
Period: 99.9 minutes
Semi major axis: 7131 km
RCS: 0.42 m2 (medium)
Launch date: July 17, 1991
Source: United Kingdom (UK)
Launch site: FRENCH GUIANA (FRGUI)

Uplink (MHz): 145.900/145.975
Downlink (MHz): 435.120
Beacon (MHz):
Mode: 9600bps FSK
Call sign: UOSAT5-11 12
Status: Inactive


Earth imaging system; store-and-forward communications system; semi-operational in 2004.
Your satellite tracking list
Your tracking list is empty




NASA's NSSDC Master Catalog

Two Line Element Set (TLE):
1 21575U 91050B   24164.81095896  .00000396  00000-0  13522-3 0  9992
2 21575  98.4383 234.2259 0006434 220.4051 139.6661 14.41618925728702
Source of the keplerian elements: AFSPC